IRIDIUM 122

Last updated on Sun Jun 21 2026 00:03:14 GMT+0000 (Coordinated Universal Time)

1 42957U 17061C 26171.06331833 .00000008 00000+0 -42108-5 0 9994 2 42957 86.3962 23.9841 0002037 84.1816 275.9612 14.34217582455193
UTC large
Height (km)
Speed (km/s)
/
Latitude / Longitude
Inclination (degrees)
Orbital Period (minutes)
Azimuth
Elevation
Range (km)
Doppler Factor

Next 0 passes for location: London (51.5072 / 0.1276)

No passes found over London.
IRIDIUM 122